Regional Weather Roundup
Issued by NWS

Home | Current Version | Previous Version | Graphics & Text | Print | Product List | Glossary On
Versions: 1 2 3 4 5 6 7 8 9 10 11 12 13 14 15 16 17 18 19 20 21 22 23 24 25 26 27 28 29 30 31 32 33 34 35 36 37 38 39 40 41 42 43 44 45 46 47 48 49 50
045
ASUS45 KBOU 231510
RWRCO

WEATHER ROUNDUP FOR COLORADO
NATIONAL WEATHER SERVICE DENVER/BOULDER CO
900 AM MDT WED MAY 23 2018

NOTE: "FAIR" INDICATES FEW OR NO CLOUDS BELOW 12000 FEET WITH NO
SIGNIFICANT WEATHER AND/OR OBSTRUCTIONS TO VISIBILITY.

COZ001>005-013-030-031-231600-
...NORTHWEST COLORADO...

CITY           SKY/WX    TMP DP  RH WIND       PRES   REMARKS
CRAIG          FAIR      50  45  83 W5        30.07S
HAYDEN         FAIR      52  43  71 E8        30.09S
MEEKER         FAIR      49  40  71 CALM      30.07F
RANGELY        FAIR      53  43  67 CALM      30.05S
RABBIT EARS PA FAIR      43  32  65 SE7       30.28R
STEAMBOAT SPGS FAIR      46  43  90 CALM      30.09F
WALDEN         FAIR      45  39  81 CALM      30.18S
$$

COZ006>008-011-231600-
...WEST CENTRAL VALLEYS...

CITY           SKY/WX    TMP DP  RH WIND       PRES   REMARKS
GRAND JUNCTION FAIR      62  43  49 SE10      30.03R
MONTROSE       PTSUNNY   54  35  48 N3        30.09R
EAGLE          FAIR      50  38  63 CALM      30.16F
RIFLE          FAIR      56  44  64 VRB3      30.06S
DELTA          FAIR      55  45  68 CALM      30.07S
NUCLA          NOT AVBL
$$

COZ017>023-064>068-231600-
...SOUTHWEST COLORADO...

CITY           SKY/WX    TMP DP  RH WIND       PRES   REMARKS
DURANGO        FAIR      57  30  35 VRB5      30.17R
CORTEZ         FAIR      61  28  28 CALM      30.12R
PAGOSA SPRINGS FAIR      58  26  29 E6        30.23R
TELLURIDE      CLOUDY    52  21  29 SE6       30.26R
WOLF CREEK PAS FAIR      37  23  56 SW8       30.45S
$$

COZ009-010-012-014-032>034-037-058>063-231600-
...CENTRAL COLORADO...

CITY           SKY/WX    TMP DP  RH WIND       PRES   REMARKS
ASPEN          FAIR      53  33  46 CALM      30.14S
BUENA VISTA    FAIR      54  35  48 CALM      30.20S
COPPER MTN     FAIR      45  23  42 SE13G18   30.37R
BERTHOUD PASS  FAIR      36  27  69 S15       30.40R
COTTONWOOD PAS FAIR      54  36  50 CALM      30.29R
GUNNISON       PTSUNNY   48  33  56 VRB3      30.21F
GRANBY         FAIR      41  38  90 CALM      30.20S
KREMMLING      CLOUDY    45  41  87 SE3       30.19S
LEADVILLE      FAIR      45  34  65 S7        30.26R
MONARCH PASS   FAIR      43  23  45 MISG      30.48S
SALIDA         FAIR      54  37  53 NE3       30.25S
SUNLIGHT       FAIR      43  27  52 S9        30.32R
WILKERSON PASS FAIR      43  32  65 CALM      30.39R
$$

COZ069>075-231600-
...SAN LUIS VALLEY/SANGRE DE CRISTO MOUNTAINS...

CITY           SKY/WX    TMP DP  RH WIND       PRES   REMARKS
ALAMOSA        FAIR      53  37  54 SW3       30.20R
DEL NORTE      FAIR      54  31  42 W6        30.22S
LA VETA PASS   FAIR      48  37  66 SW6       30.44R
SAGUACHE       NOT AVBL
$$

COZ035-036-038>040-231600-
...NORTHERN COLORADO FRONT RANGE...

CITY           SKY/WX    TMP DP  RH WIND       PRES   REMARKS
DENVER INTL AP FAIR      64  46  52 SE3       30.05S
AURORA         MOSUNNY   64  46  52 CALM      30.07R
FRONT RANGE AP PTSUNNY   64  46  52 CALM      30.06
ERIE MUNI ARPT FAIR      65  48  53 CALM      30.09S
BOULDER MUN AP FAIR      63  45  51 CALM      30.04R
CENTENNIAL     PTSUNNY   63  47  55 NW5       30.07R
BROOMFIELD     MOSUNNY   64  46  52 SE3       30.06S
FORT COLLINS   FAIR      61  51  70 VRB3      30.04S
LONGMONT       FAIR      66  51  57 CALM      30.04S
$$

COZ041-046-047-076>085-087-088-231600-
...PIKES PEAK/PALMER DIVIDE AND SOUTHERN FOOTHILLS...

CITY           SKY/WX    TMP DP  RH WIND       PRES   REMARKS
COLO. SPRINGS  PTSUNNY   64  44  48 CALM      30.11S
A. F. ACADEMY  FAIR      64  44  49 S5        30.11S
SCHRIEVER AFB  NOT AVBL
CHEYENNE MTN   FAIR      61  43  52 E5        30.09R
ELLICOTT         N/A    N/A N/A N/A S6        30.09R
FALCON         FAIR      64  41  44 CALM      30.15R
FORT CARSON    FAIR      65  44  46 CALM      30.08S
LIMON          FAIR      61  48  62 SW3       30.07R
MONUMENT HILL  FAIR      61  43  51 S5        30.15R
CANON CITY     FAIR      66  43  42 W5G16     30.07S
WALSENBURG     FAIR      64  43  45 CALM      30.11S
TRINIDAD       FAIR      66  52  60 SW25G32   30.11R
$$

COZ042>045-048>051-090-091-231600-
...NORTHEAST COLORADO...

CITY           SKY/WX    TMP DP  RH WIND       PRES   REMARKS
GREELEY ARPT   FAIR      61  50  67 CALM      30.04S
AKRON          FAIR      61  52  72 W9        30.02R
BURLINGTON     FAIR      68  52  56 S30G39    30.03R
WRAY           FAIR      72  52  49 S14G26    30.01R
YUMA           FAIR      64  45  48 S10       30.02R
STERLING       FAIR      63  52  67 W3        29.99R
HOLYOKE        FAIR      73  55  53 S13       30.00S
FORT MORGAN    FAIR      65  48  53 CALM      30.03S
$$

COZ086-089-092>099-231600-
...SOUTHEAST COLORADO...

CITY           SKY/WX    TMP DP  RH WIND       PRES   REMARKS
PUEBLO         FAIR      66  46  48 CALM      30.04R
LA JUNTA       FAIR      74  52  46 S24G33    30.02S
LAMAR          FAIR      71  50  47 S13       30.02S
SPRINGFIELD      N/A     67  56  67 S17       30.09S
$$




USA.gov is the U.S. government's official web portal to all federal, state and local government web resources and services.